Flag for U.S.A. Weather past 2 weeks in Lincoln, Nebraska, U.S.A.

Now
78 °F

Sunny.


Feels Like: 80 °F
Forecast: 61 / 83 °F
Wind: 12 mph from North

Location: Lincoln Municipal Airport

Current Time: Jul 28, 2015 at 8:31:56 PM

Latest Report: Jul 28, 2015 at 7:54 PM


Visibility: 10 mi

Pressure: 29.90 "Hg

Humidity: 60%

Dew point: 63 °F

Location of LincolnLocation

Historic Weather in Lincoln — Graph

°F

Lincoln temperature yesterday

Maximum temperature yesterday: 91 °F (at 2:54 PM)
Minimum temperature yesterday: 77 °F (at 6:54 AM)
Average temperature yesterday: 83 °F

Past Weeks' High & Low Weather Summary

 TemperatureHumidityPressure
High99 °F (Jul 24, 3:54 PM)97% (Jul 16, 2:54 AM)30.04 "Hg (Jul 16, 2:54 AM)
Low59 °F (Jul 21, 5:54 AM)34% (Jul 14, 11:54 AM)29.65 "Hg (Jul 17, 9:54 PM)
Average80 °F71%29.85 "Hg
* Reported Jul 13 6:54 PM — Jul 28 6:54 PM, Lincoln, Weather by CustomWeather, © 2015

Note: Actual official high and low records may vary slightly from our data, if they occured in-between our weather recording intervals... More about our weather records

Advertising

Lincoln weather history for previous 24 hours

 ConditionsComfort  
Time TempWeatherWind HumidityBarometerVisibility
6:54 PM
Tue, Jul 28
80 °FPassing clouds.17 mph64%29.88 "Hg10 mi
5:54 PM82 °FPassing clouds.18 mph67%29.87 "Hg10 mi
4:54 PM81 °FPassing clouds.24 mph72%29.86 "Hg10 mi
3:54 PM93 °FPartly sunny.6 mph54%29.83 "Hg10 mi
2:54 PM89 °FPartly sunny.8 mph61%29.83 "Hg10 mi
1:54 PM88 °FScattered clouds.7 mph61%29.82 "Hg10 mi
12:54 PM87 °FScattered clouds.9 mph63%29.81 "Hg10 mi
11:54 AM87 °FSunny.8 mph63%29.81 "Hg10 mi
10:54 AM85 °FSunny.9 mph70%29.80 "Hg9 mi
9:54 AM82 °FSunny.13 mph79%29.81 "Hg9 mi
8:54 AM77 °FThunderstorms. Partly sunny.15 mph88%29.82 "Hg8 mi
7:54 AM78 °FSunny.7 mph82%29.78 "Hg9 mi
6:54 AM78 °FPassing clouds.12 mph79%29.71 "Hg10 mi
5:54 AM80 °FThundershowers. Clear.7 mph74%29.72 "Hg10 mi
4:54 AM81 °FPassing clouds.15 mph72%29.72 "Hg10 mi
3:54 AM81 °FClear.13 mph72%29.72 "Hg10 mi
2:54 AM80 °FClear.14 mph76%29.74 "Hg10 mi
1:54 AM81 °FClear.14 mph74%29.76 "Hg10 mi
12:54 AM79 °FClear.8 mph90%29.78 "Hg9 mi
11:54 PM
Mon, Jul 27
80 °FClear.12 mph87%29.79 "Hg10 mi
10:54 PM82 °FClear.16 mph85%29.78 "Hg10 mi
9:54 PM85 °FClear.16 mph80%29.78 "Hg10 mi
8:54 PM86 °FSunny.13 mph75%29.77 "Hg10 mi
Weather by CustomWeather, © 2015

See weather overviewHow to use our weather pages